Regional Weather Roundup
Issued by NWS Newport/Morehead, NC

Current Version | Previous Version | Graphics & Text | Print | Product List | Glossary On
Versions: 1 2 3 4 5 6 7 8 9 10 11 12 13 14 15 16 17 18 19 20 21 22 23 24 25 26 27 28 29 30 31 32 33 34 35 36 37 38 39 40 41 42 43 44 45 46 47 48 49 50
000 ASUS42 KMHX 190813 RWRMHX WEATHER ROUNDUP FOR EASTERN NORTH CAROLINA NATIONAL WEATHER SERVICE NEWPORT/MOREHEAD CITY NC 400 AM EDT THU APR 19 2018 NOTE: "FAIR" INDICATES FEW OR NO CLOUDS BELOW 12,000 FEET WITH NO SIGNIFICANT WEATHER AND/OR OBSTRUCTIONS TO VISIBILITY NCZ015>017-031-032-045>047-102-103-190900- NORTH COAST CITY SKY/WX TMP DP RH WIND PRES REMARKS EDENTON FAIR 68 55 62 SW9 29.69R ELIZABETH CITY FAIR 66 54 65 SW17 29.65S KITTY HAWK FAIR 64 52 66 SW8G18 29.67S MANTEO FAIR 63 55 76 SW17 29.69F $$ NCZ045>047-081-094-103-104-190900- CENTRAL COAST CITY SKY/WX TMP DP RH WIND PRES REMARKS FRISCO FAIR 66 59 78 SW20G29 29.76F $$ NCZ095-097-098-100-101-190900- SOUTHERN COAST CITY SKY/WX TMP DP RH WIND PRES REMARKS BEAUFORT FAIR 64 56 75 SW18G28 29.78S CEDAR ISLAND NOT AVBL JACKSONVILLE FAIR 71 49 45 SW15G24 29.76F PINEY ISLAND NOT AVBL WILMINGTON FAIR 68 51 54 SW14G22 29.80F $$ NCZ011>013-027>030-043-044-078>080-089-090>093-098-190900- COASTAL PLAIN CITY SKY/WX TMP DP RH WIND PRES REMARKS AHOSKIE FAIR 62 48 60 CALM 29.66R CLINTON FAIR 71 53 52 SW9 29.75S ELIZABETHTOWN FAIR 69 50 50 MISG 29.78S GOLDSBORO FAIR 73 51 45 SW18 29.69F GREENVILLE FAIR 64 52 63 SW8 29.73S HAVELOCK NOT AVBL KENANSVILLE FAIR 66 52 59 SW9G16 29.75R KINSTON FAIR 67 52 57 SW12 29.72S NEW BERN FAIR 72 51 47 SW17G28 29.75S RICHLANDS FAIR 67 51 56 SW15 29.77S ROCKY MOUNT FAIR 67 49 52 S9 29.69S WASHINGTON FAIR 68 51 55 SW14 29.71S WHITEVILLE FAIR 69 49 48 SW12 29.80S $$ AMZ130-135-150-152-154-156-158-170-250-252-270-ANZ085-086-088-633-658-670-190900- MARINE OBSERVATIONS STATION/POSITION TIME TEMP WIND PRES WAVE SWELL AIR SEA DIR/SP/G HT/PER HT/PER (UTC) (F) (DEG/KT/KT) (MB) (FT/S) (FT/S) CHESAPEAKE LIGHT NOT AVBL 64 E VA BEACH 0750 57 50 200/ 21/ 23 1003.9 5/ 5 2/ 9 DUCK 0748 67 48 210/ 17/ 23 1003.9 2 E DUCK 0800 49 N/A 2/17 2/17 OREGON INLET 0742 64 62 200/ 21/ 24 1005.6 13E OREGON INLT 0748 52 N/A 4/ 7 3/ 7 HATTERAS CG 0748 230/ 15/ 21 N/A DIAMOND BUOY 0800 70 67 230/ 23/ 29 1008.8 CAPE LOOKOUT 0800 230/ 19/ 26 1008.8 BEAUFORT LAB 0748 220/ 9/ 15 N/A 30 SE NEW RVR IN 0708 68 66 220/ 21/ 27 1009.3 30 SE NEW RVR IN 0800 66 N/A 8/ 7 27 SE WRIGHTSVLE 0708 67 64 220/ 23/ 31 1010.4 5 SE WRIGHTSVLE 0708 65 60 240/ 16/ 19 1009.3 225 S CAPE HAT 0800 71 72 220/ 23/ 29 1015.0 41 SE CHARLESTON 0750 70 67 230/ 19/ 25 1013.1 7/ 6 $$

USA.gov is the U.S. government's official web portal to all federal, state and local government web resources and services.